Location: St. Louis
(38.6270°N, 90.1994°W)
Time: 00:30:42
(UTC-06:00)

Courier 1B Rocket - Pass Details

Date: 06 December 2021
Orbit: 920 x 1202 km, 28.2° (Epoch: 16 January)

Event Time Altitude Azimuth Distance (km) Brightness Sun altitude
Rises 23:12:55 0° 251° (WSW) 3,681 - -71.9°
Reaches altitude 10° 23:15:54 10° 242° (WSW) 2,694 - -72.2°
Maximum altitude 23:21:32 32° 181° (S) 1,536 - -72.7°
Drops below altitude 10° 23:26:59 10° 120° (ESE) 2,607 - -73.1°
Sets 23:29:49 0° 110° (ESE) 3,545 - -73.3°
